This demonstration page uses our WeatherBlox Daily Observations layout. Learn more.

Left ArrowRight Arrow

Hourly Observations for August 9, 2017

Temp ( °F °C ) Dew Point ( °F °C ) Humidity (%) Winds ( mph kmh ) Pressure ( in mb ) Visibility ( mi km ) Precip ( " mm )
12:15 am 00:15 Clear 57 13.8 56 13.3 97 97 Calm 30.18 1022 10 16 0.00 0.00
12:35 am 00:35 Clear 57 13.9 56 13.3 96 96 Calm 30.21 1023 10 16 0.00 0.00
12:55 am 00:55 Partly Cloudy 56 13.6 55 13 96 96 Calm 30.21 1023 10 16 0.00 0.00
1:15 am 01:15 Clear 56 13.6 55 13 96 96 Calm 30.21 1023 10 16 0.00 0.00
1:35 am 01:35 Clear 56 13.1 55 12.6 97 97 Calm 30.21 1023 10 16 0.00 0.00
1:55 am 01:55 Clear 56 13.1 55 12.7 97 97 Calm 30.21 1023 10 16 0.00 0.00
2:15 am 02:15 Clear 55 13 55 12.6 97 97 NNW 3 6 30.21 1023 10 16 0.00 0.00
2:35 am 02:35 Clear 54 12.4 54 12 97 97 Calm 30.21 1023 10 16 0.00 0.00
2:55 am 02:55 Clear 55 12.7 55 12.5 99 99 Calm 30.21 1023 10 16 0.00 0.00
3:15 am 03:15 Clear 55 12.7 54 12.3 97 97 Calm 30.21 1023 10 16 0.00 0.00
3:35 am 03:35 Clear 54 12.4 54 12.1 98 98 Calm 30.21 1023 10 16 0.00 0.00
3:55 am 03:55 Clear 54 12.4 54 12 97 97 Calm 30.21 1023 10 16 0.00 0.00
4:15 am 04:15 Clear 54 12 53 11.6 97 97 Calm 30.21 1023 10 16 0.00 0.00
4:35 am 04:35 Clear 55 12.5 54 12.1 97 97 Calm 30.21 1023 10 16 0.00 0.00
4:55 am 04:55 Clear 53 11.9 53 11.6 98 98 Calm 30.21 1023 10 16 0.00 0.00
5:15 am 05:15 Clear 53 11.8 53 11.6 99 99 Calm 30.21 1023 10 16 0.00 0.00
5:35 am 05:35 Clear 53 11.5 52 11.1 97 97 Calm 30.21 1023 10 16 0.00 0.00
5:55 am 05:55 Clear 53 11.5 52 11.2 98 98 Calm 30.21 1023 10 16 0.00 0.00
6:15 am 06:15 Clear 53 11.4 52 11.2 99 99 Calm 30.21 1023 10 16 0.00 0.00
6:35 am 06:35 Clear 52 10.9 51 10.7 99 99 Calm 30.21 1023 10 16 0.00 0.00
6:55 am 06:55 Sunny 52 11.1 52 10.9 99 99 Calm 30.21 1023 10 16 0.00 0.00
7:15 am 07:15 Sunny 52 10.9 51 10.7 99 99 Calm 30.24 1024 10 16 0.00 0.00
7:35 am 07:35 Sunny 53 11.7 53 11.6 99 99 Calm 30.24 1024 10 16 0.00 0.00
7:50 am 07:50 Sunny 54 12.3 54 12.1 99 99 Calm 30.24 1024 10 16 0.00 0.00
8:15 am 08:15 Sunny 58 14.2 57 13.7 97 97 Calm 30.24 1024 10 16 0.00 0.00
8:35 am 08:35 Sunny 60 15.8 58 14.5 92 92 Calm 30.21 1023 10 16 0.00 0.00
8:55 am 08:55 Sunny 63 17.1 59 15 88 88 Calm 30.21 1023 10 16 0.00 0.00
9:15 am 09:15 Sunny 65 18.5 60 15.5 83 83 Calm 30.21 1023 10 16 0.00 0.00
9:35 am 09:35 Sunny 68 20.1 57 14.1 69 69 Calm 30.21 1023 10 16 0.00 0.00
9:55 am 09:55 Sunny 69 20.6 58 14.7 69 69 Calm 30.21 1023 10 16 0.00 0.00
10:15 am 10:15 Sunny 70 21.3 58 14.6 66 66 Calm 30.21 1023 10 16 0.00 0.00
10:35 am 10:35 Sunny 71 21.8 59 14.8 65 65 Calm 30.21 1023 10 16 0.00 0.00
10:55 am 10:55 Sunny 72 22.4 58 14.4 61 61 Calm 30.21 1023 10 16 0.00 0.00
11:15 am 11:15 Sunny 73 23 56 13.3 54 54 Calm 30.21 1023 10 16 0.00 0.00
11:35 am 11:35 Sunny 74 23.5 55 12.7 51 51 SE 5 7 30.18 1022 10 16 0.00 0.00
11:55 am 11:55 Sunny 75 23.8 55 12.7 50 50 E 5 7 30.18 1022 10 16 0.00 0.00
12:15 pm 12:15 Sunny 76 24.2 55 13 50 50 SSE 3 6 30.18 1022 10 16 0.00 0.00
12:35 pm 12:35 Sunny 76 24.3 56 13.2 50 50 SE 9 15 30.18 1022 10 16 0.00 0.00
12:55 pm 12:55 Sunny 76 24.6 55 13 49 49 SE 5 7 30.18 1022 10 16 0.00 0.00
1:15 pm 13:15 Sunny 77 24.8 55 12.8 47 47 ESE 6 9 30.15 1021 10 16 0.00 0.00
1:35 pm 13:35 Sunny 76 24.7 54 12 45 45 ESE 5 7 30.15 1021 10 16 0.00 0.00
1:55 pm 13:55 Sunny 77 25.1 54 12.2 45 45 SSE 5 7 30.15 1021 10 16 0.00 0.00
2:15 pm 14:15 Partly Cloudy 78 25.3 55 12.9 46 46 SE 7 11 30.15 1021 10 16 0.00 0.00
2:35 pm 14:35 Sunny 78 25.6 54 12.2 43 43 ESE 6 9 30.15 1021 10 16 0.00 0.00
2:55 pm 14:55 Partly Cloudy 78 25.6 54 12.1 43 43 Calm 30.15 1021 10 16 0.00 0.00
3:15 pm 15:15 Partly Cloudy 78 25.7 55 12.7 45 45 ESE 8 13 30.12 1020 10 16 0.00 0.00
3:35 pm 15:35 Sunny 79 26 54 12.2 42 42 Calm 30.12 1020 10 16 0.00 0.00
3:55 pm 15:55 Sunny 80 26.4 56 13.2 44 44 SE 5 7 30.12 1020 10 16 0.00 0.00
4:15 pm 16:15 Sunny 79 26.2 54 12.2 42 42 NE 6 9 30.12 1020 10 16 0.00 0.00
4:35 pm 16:35 Sunny 79 26.2 55 12.6 43 43 E 3 6 30.12 1020 10 16 0.00 0.00
4:55 pm 16:55 Sunny 80 26.4 55 12.7 43 43 ENE 6 9 30.09 1019 10 16 0.00 0.00
5:15 pm 17:15 Sunny 79 26.3 56 13.1 44 44 E 6 9 30.09 1019 10 16 0.00 0.00
5:35 pm 17:35 Sunny 80 26.4 54 12.3 42 42 ENE 5 7 30.09 1019 10 16 0.00 0.00
5:55 pm 17:55 Sunny 79 26.3 55 13 44 44 ESE 3 6 30.09 1019 10 16 0.00 0.00
6:15 pm 18:15 Sunny 79 26 55 12.5 43 43 E 3 6 30.09 1019 10 16 0.00 0.00
6:35 pm 18:35 Sunny 78 25.8 55 12.7 44 44 ESE 5 7 30.09 1019 10 16 0.00 0.00
6:55 pm 18:55 Sunny 78 25.6 55 12.5 44 44 ESE 5 7 30.09 1019 10 16 0.00 0.00
7:15 pm 19:15 Sunny 77 25.1 56 13.4 48 48 E 3 6 30.09 1019 10 16 0.00 0.00
7:35 pm 19:35 Sunny 76 24.6 57 13.8 51 51 ESE 3 6 30.09 1019 10 16 0.00 0.00
7:55 pm 19:55 Sunny 74 23.5 57 13.8 55 55 ESE 5 7 30.09 1019 10 16 0.00 0.00
8:15 pm 20:15 Sunny 73 22.5 57 13.7 58 58 ESE 5 7 30.09 1019 10 16 0.00 0.00
8:35 pm 20:35 Sunny 69 20.8 58 14.7 68 68 ESE 5 7 30.12 1020 10 16 0.00 0.00
8:55 pm 20:55 Clear 67 19.5 58 14.7 74 74 ESE 3 6 30.12 1020 10 16 0.00 0.00
9:15 pm 21:15 Clear 66 19 57 14.1 73 73 ESE 3 6 30.12 1020 10 16 0.00 0.00
9:35 pm 21:35 Clear 64 17.6 58 14.6 83 83 Calm 30.12 1020 10 16 0.00 0.00
9:55 pm 21:55 Clear 63 17.2 57 13.8 81 81 Calm 30.15 1021 10 16 0.00 0.00
10:15 pm 22:15 Clear 61 16.3 56 13.6 84 84 Calm 30.15 1021 10 16 0.00 0.00
10:35 pm 22:35 Clear 60 15.8 56 13.5 86 86 Calm 30.15 1021 10 16 0.00 0.00
10:55 pm 22:55 Clear 60 15.6 57 13.7 89 89 Calm 30.15 1021 10 16 0.00 0.00
11:15 pm 23:15 Clear 60 15.5 56 13.5 88 88 Calm 30.15 1021 10 16 0.00 0.00
11:35 pm 23:35 Clear 58 14.7 56 13.2 91 91 Calm 30.15 1021 10 16 0.00 0.00
11:55 pm 23:55 Clear 59 15 56 13.4 90 90 Calm 30.15 1021 10 16 0.00 0.00

Powered by AerisWeather